Regional Weather Roundup
Issued by NWS

Home | Current Version | Previous Version | Text Only | Print | Product List | Glossary Off
Versions: 1 2 3 4 5 6 7 8 9 10 11 12 13 14 15 16 17 18 19 20 21 22 23 24 25 26 27 28 29 30 31 32 33 34 35 36 37 38 39 40 41 42 43 44 45 46 47 48 49 50

000
ASUS45 KABQ 291210
RWRNM
WEATHER ROUNDUP FOR NEW MEXICO
NATIONAL WEATHER SERVICE ALBUQUERQUE NM
500 AM MST THU JAN 29 2015

NOTE: "FAIR" MEANS FEW OR NO CLOUDS BELOW 12,000 FEET AGL WITH NO
       SIGNIFICANT WEATHER OR OBSTRUCTIONS TO VISION.

      THIS PRODUCT IS RELEASED AS TWO VERSIONS.  ONE VERSION NEAR
      THE TOP OF THE HOUR CONTAINING PRELIMINARY DATA FROM ALBUQUERQUE
      AND OTHER STATIONS.  A FINAL VERSION WITH ADDITIONAL DATA IS
      ISSUED ABOUT 10 MINUTES AFTER THE HOUR.

NMZ501-503-504-510>518-291300-
NORTHWEST PLATEAU/NORTHCENTRAL MOUNTAINS

CITY           SKY/WX    TMP DP  RH WIND       PRES   REMARKS
FARMINGTON     CLEAR     34  27  75 E6        30.30R WCI  29
6HR MIN TEMP:  33; 6HR MAX TEMP:  36;

LOS ALAMOS     CLOUDY    36  28  70 SE3       30.34R
SANTA FE       CLOUDY    37  27  67 N5        30.33R WCI  33
6HR MIN TEMP:  37; 6HR MAX TEMP:  42;

TAOS           CLOUDY    30  25  80 N6        30.35R WCI  24
ANGEL FIRE     FAIR      26  24  93 CALM      30.41R

$$
NMZ402-403-502-505>509-291300-
WESTCENTRAL MOUNTAINS/SOUTHWEST MOUNTAINS

CITY           SKY/WX    TMP DP  RH WIND       PRES   REMARKS
GALLUP         CLOUDY    35  30  82 CALM      30.31S
6HR MIN TEMP:  34; 6HR MAX TEMP:  39;

GRANTS         CLOUDY    33  30  90 CALM      30.34R
SILVER CITY    MOCLDY    45  32  61 NW3       30.25R

$$
NMZ407-409-411-412-291300-
SOUTHERN DESERTS

CITY           SKY/WX    TMP DP  RH WIND       PRES   REMARKS
LORDSBURG      FAIR      34  32  93 S6        30.20S WCI  29
DEMING         MOCLDY    40  33  76 E6        30.20F
6HR MIN TEMP:  36; 6HR MAX TEMP:  45;

LAS CRUCES     MOCLDY    49  36  60 N5        30.21S
HOLLOMAN AFB   CLOUDY    43  37  81 N6        30.19F
ALAMOGORDO     MOCLDY    45  36  70 S5        30.22R
T OR C         CLOUDY    47  33  58 CALM      30.24S
6HR MIN TEMP:  46; 6HR MAX TEMP:  49;


$$
NMZ519>523-291300-
CENTRAL VALLEYS/CENTRAL HIGHLANDS

CITY           SKY/WX    TMP DP  RH WIND       PRES   REMARKS
ALBUQUERQUE    CLOUDY    44  30  57 NE7       30.31R
6HR MIN TEMP:  42; 6HR MAX TEMP:  48;

MORIARTY ARPT  FAIR      34  30  85 SW6       30.37R WCI  29
6HR MIN TEMP:  32; 6HR MAX TEMP:  38;

CLINES CORNERS CLOUDY    37  28  70 E13       30.34R WCI  29
6HR MIN TEMP:  37; 6HR MAX TEMP:  44;

BELEN          FAIR      38  32  79 CALM      30.31S
6HR MIN TEMP:  35; 6HR MAX TEMP:  42;

SOCORRO        FAIR      43  32  65 N7        30.30S
6HR MIN TEMP:  43; 6HR MAX TEMP:  46;


$$
NMZ524>526-539-540-291300-
SOUTHCENTRAL MOUNTAINS

CITY           SKY/WX    TMP DP  RH WIND       PRES   REMARKS
RUIDOSO        CLOUDY    41  28  60 N13G24    30.34S

$$
NMZ527>531-291300-
NORTHEAST HIGHLANDS/NORTHEAST PLAINS

CITY           SKY/WX    TMP DP  RH WIND       PRES   REMARKS
LAS VEGAS      CLOUDY    34  28  79 N8        30.38R WCI  27
6HR MIN TEMP:  34; 6HR MAX TEMP:  40;

RATON          MOCLDY    38  29  70 N14       30.37R WCI  30
6HR MIN TEMP:  34; 6HR MAX TEMP:  41;

CLAYTON        CLOUDY    41  31  67 N18       30.37S
6HR MIN TEMP:  41; 6HR MAX TEMP:  43;


$$
NMZ532>537-291300-
EASTCENTRAL PLAINS

CITY           SKY/WX    TMP DP  RH WIND       PRES   REMARKS
TUCUMCARI      MOCLDY    40  32  73 CALM      30.35R
6HR MIN TEMP:  38; 6HR MAX TEMP:  49;

CANNON AFB     PTCLDY    41  33  75 N18       30.30R
6HR MIN TEMP:  38; 6HR MAX TEMP:  48;

CLOVIS AIRPORT CLEAR     39  32  75 N18       30.31R WCI  30

$$
NMZ028-029-538-291300-
SOUTHEAST PLAINS

CITY           SKY/WX    TMP DP  RH WIND       PRES   REMARKS
ROSWELL        CLOUDY    48  35  60 N18       30.26R
6HR MIN TEMP:  45; 6HR MAX TEMP:  52;

ARTESIA        MOCLDY    46  39  76 NW13      30.26R
CARLSBAD       PTCLDY    49  37  63 NW12      30.22R
6HR MIN TEMP:  44; 6HR MAX TEMP:  57;

HOBBS          PTCLDY    41  36  81 N10       30.23R


$$


USA.gov is the U.S. government's official web portal to all federal, state and local government web resources and services.